RH
50 46 48 40 35 28 27 26 26 24 23 20 22 22 17 18 20 21 23 22 21 19 18 17 15 15 14 14 13 12 13 14 14 14 15 15 15 14 13 13 16 17 21 23
49 48 45 40 33 28 27 27 26 25 24 20 22 20 18 17 19 21 20 20 19 18 17 16 14 14 13 13 12 13 14 16 15 15 16 16 15 14 12 16 19 22 23 25
50 44 43 39 36 32 34 26 26 21 23 22 18 15 14 16 17 17 18 18 17 15 14 13 13 12 12 12 13 15 17 17 16 17 18 19 18 16 14 22 25 26 26 26
50 42 39 41 39 34 28 30 25 23 22 26 21 22 15 18 19 19 19 18 17 16 15 13 13 12 13 14 16 19 18 17 19 20 22 23 22 17 16 24 27 27 27 27
46 40 37 42 41 33 30 26 24 23 26 25 21 28 18 19 21 21 20 19 18 17 16 15 15 16 17 19 18 18 19 21 23 24 26 27 24 18 15 24 28 32 31 30
45 38 37 38 36 32 29 24 25 29 30 31 32 30 30 21 22 22 20 18 17 17 17 17 17 17 17 18 19 20 20 22 23 26 27 27 24 18 13 23 28 33 34 35
40 38 37 35 31 31 28 26 37 33 39 36 42 38 25 22 22 22 21 20 19 18 17 18 18 18 19 20 20 21 23 25 26 27 27 25 22 16 13 20 28 34 35 36
40 36 39 38 35 31 34 29 37 25 36 35 40 33 26 22 21 22 23 21 20 20 19 19 19 18 19 21 23 24 25 26 26 26 26 26 24 17 15 15 25 34 37 36
37 42 39 39 37 34 30 35 32 42 44 35 34 26 24 25 24 25 24 23 23 22 21 21 20 21 23 24 24 22 22 24 26 26 26 30 28 19 18 14 21 30 34 34
35 41 40 41 37 35 32 33 32 38 33 32 32 28 33 29 30 29 29 28 27 26 25 24 22 21 20 22 23 24 25 25 27 29 32 29 29 24 22 20 19 27 32 30
36 34 42 39 36 37 39 38 34 34 35 38 34 34 26 29 31 31 30 29 27 24 22 20 20 20 22 24 25 27 27 27 28 30 31 30 32 28 25 23 25 22 27 29
36 40 47 37 40 38 36 35 33 39 35 44 40 38 28 32 33 33 31 28 27 24 21 20 20 21 25 29 31 32 30 28 28 29 30 31 33 34 30 27 25 26 22 23
33 34 41 33 36 40 41 36 35 36 40 43 42 38 28 32 34 31 29 28 25 22 19 19 20 23 27 27 27 26 27 28 28 28 29 30 33 34 36 30 25 25 22 20
32 35 30 37 29 37 42 41 37 36 44 38 42 33 31 32 30 29 27 26 25 21 20 23 24 28 28 26 23 20 18 18 22 27 29 31 35 38 38 37 30 25 22 20
35 35 40 38 36 42 40 40 42 40 34 33 28 30 24 25 25 28 28 25 24 25 27 29 28 27 24 20 18 19 19 18 19 19 25 29 34 41 40 41 41 35 26 20
32 33 37 35 37 40 42 40 41 40 36 33 32 31 29 30 29 27 27 29 30 31 31 28 27 24 22 19 18 20 23 22 20 20 20 24 30 39 43 41 37 36 33 30
39 40 38 32 36 33 27 29 32 35 37 34 37 31 30 31 33 34 32 31 30 28 26 24 22 21 22 26 24 22 24 30 27 23 22 23 26 32 38 40 38 31 29 29
37 38 38 40 30 21 18 26 29 34 34 36 36 38 38 36 35 32 29 29 28 25 23 24 24 24 24 27 31 33 26 27 33 35 27 24 28 32 32 33 33 30 31 28
36 36 38 33 36 21 21 24 27 30 25 27 32 34 33 29 26 24 24 24 24 23 24 26 28 29 30 32 33 35 37 31 29 33 42 37 27 28 31 31 32 30 31 30
62 56 41 45 36 24 17 23 23 23 23 24 25 25 25 24 26 26 26 26 27 28 32 36 38 40 36 34 35 35 34 35 36 32 37 44 49 43 31 27 28 29 30 29
69 71 75 72 69 55 43 40 39 36 30 29 29 28 28 29 30 32 33 34 35 39 43 47 48 46 45 40 38 37 36 35 36 34 34 35 36 40 49 49 41 32 27 27
60 65 68 69 72 62 50 53 54 51 53 54 53 51 50 50 51 50 49 48 48 49 48 47 45 47 46 38 33 32 32 32 32 28 27 27 26 27 28 31 34 41 47 42
54 52 57 57 54 48 51 50 51 52 53 54 56 57 58 59 59 60 62 64 61 55 52 47 40 38 36 35 34 32 29 28 28 29 28 27 27 28 29 28 28 29 31 32
51 52 54 54 50 52 53 55 56 57 58 56 56 56 56 57 56 57 56 52 50 49 47 44 44 45 44 43 42 39 36 33 31 31 32 31 30 29 29 30 30 29 30 30
50 54 56 55 53 54 55 56 59 62 62 62 60 61 64 64 60 58 59 60 61 61 60 62 62 61 59 58 56 54 51 47 41 37 37 37 37 35 33 32 33 33 32 32
56 57 59 57 56 58 60 67 68 66 68 71 72 71 70 70 70 69 68 68 66 65 66 66 62 57 51 48 45 42 41 41 40 39 41 41 40 41 43 42 41 44 43 43